Location: Bilsen
(53.7722°N, 9.8765°E)
Time: 23:59:24
(UTC+00:00)

NOSS 0 Rocket - Pass Details

Date: 18 February 2020
Orbit: 937 x 953 km, 70.0° (Epoch: 04 April)

Event Time Altitude Azimuth Distance (km) Brightness Sun altitude
Exits shadow 03:40:41 59° 295° (WNW) 1,091 3.9 -26.2°
Maximum altitude 03:41:02 60° 311° (NW) 1,082 4.0 -26.1°
Drops below altitude 10° 03:47:12 10° 31° (NNE) 2,684 6.9 -25.2°
Sets 03:49:48 0° 35° (NE) 3,631 7.7 -24.9°
